THOR ABLESTAR DEB, 330

Orbit data source: Space-Track

THOR ABLESTAR DEB, 330 is space debris in LEO originally from a launch on Thu, 29 Jun 1961 UTC launched from the Air Force Eastern Test Range (AFETR). Debris objects in space refer to the collection of defunct objects orbiting the Earth. Examples of debris include non-operational satellites, rocket bodies, and fragments generated from explosions, collisions, or faulty payload assembly.

Loading next visibility...
Identifier
330, 1961-015DG
Orbit
LEO
Country
Flag of USUS
Related business
Manufacturer
Unknown
Mission
Spacecraft
Bus & Motor
Unknown
Mass
Unknown
Launch date (UTC)
1961-06-29 (65 years ago)
Launch vehicle
Unknown
Launch site
Air Force Eastern Test Range (AFETR)
Object type
Payload
Rocket body
Debris
Shape & HBR
Unknown shape, 0.1 m
Radar Cross Section
Small (<0.1 m²)

Expand to show TLE details & history
Last TLE update: 5 hours ago

TLE from 5 hours ago
0 THOR ABLESTAR DEB
1   330U 61015DG  26122.09236676  .00000643  00000-0  42993-3 0  9994
2   330  66.9797  58.5672 0044878 160.9831 199.2946 14.06718519290221
Epoch: 2026-05-02T02:13Z
TLE epoch observation values (Epoch: 2026-05-02T02:13:00.488Z)
Latitude
-0.00001°
Longitude
165.29993°
Altitude
903.451 km
Speed
7.385 km/s
True Right ascension
03h 54m 16s
True Declination
0° 00' 00"
Sunlit
Object was in daylight at epoch
Visualization orbit readout
Latitude
Unknown
Longitude
Unknown
Altitude
Unknown
Speed
Unknown
Apparent Right ascension
Unknown
Apparent Declination
Unknown
Sunlit
N/A
Visualization observer readout
Local Sidereal Time
14:33:07
Azimuth
Unknown
Elevation
Unknown
Doppler factor
Unknown
Orbital elements
Apogee altitude
901.507 km
Perigee altitude
836.46 km
Semi-major axis
7,247.12 km
Eccentricity
0.00449
Inclination
66.9797°
RAAN
58.5672°
Arg. of periapsis
160.9831°
True anomaly
199.12557°
Mean anomaly
199.2946°
Eccentric anomaly
199.21°
Mean motion
3.51799 °/min
Orbital period
102.33 mins
BSTAR
0.00042993
Loading maneuver chart data...
Computing Atmospheric mass density...
Loading historical data...
Loading historical data...
Loading historical data...
Loading historical data...
Loading historical data...
Loading historical data...
Loading historical data...

Documentation

Showing up to 5 results
|